User: anonymous   Login
Location: Quebec
(46.8000°N, 71.2500°W)
Time: 10:06:09
(UTC-05:00)
Language:

Tiangong 2 - Orbit

View from above orbital plane
View from above orbital plane
View from above satellite
View from above satellite

Ground track
Ground track

The orbit data is extracted from the following two-line orbital elements,

1 41765U 16057A   18053.19852645  .00004890  00000-0  62359-4 0  9999
2 41765  42.7858 308.3106 0003238 202.5866 295.0574 15.60437459 82012
Epoch (UTC): 22 February 2018 04:45:52
Eccentricity: 0.0003238
inclination: 42.7858°
perigee height: 384 km
apogee height: 388 km
right ascension of ascending node: 308.3106°
argument of perigee: 202.5866°
revolutions per day: 15.60437459
mean anomaly at epoch: 295.0574°
orbit number at epoch: 8201

The dashed part of the orbit path shows where the satellite is in the earth's shadow,  

DLR